Location: East Guldeford
(50.9500°N, 0.7500°E)
Time: 09:41:22
(UTC+00:00)

ATLAS 2AS CENTAUR R/B - Pass Details

Date: 12 May 2021
Orbit: 949 x 1263 km, 63.7° (Epoch: 07 May)

Event Time Altitude Azimuth Distance (km) Brightness Sun altitude
Rises 20:36:12 0° 312° (NW) 4,157 8.4 -8.4°
Reaches altitude 10° 20:39:08 10° 317° (NW) 3,155 6.9 -8.7°
Maximum altitude 20:46:33 56° 35° (NE) 1,349 3.3 -9.5°
Drops below altitude 10° 20:53:25 10° 113° (ESE) 2,922 4.4 -10.3°
Enters shadow 20:53:31 10° 113° (ESE) 2,957 4.5 -10.3°
